Wind_Speed
72 73 73 73 73 73 73 73 73 73 73 73 74 75 77 78 78 76 76 77 78 78 76 72 70 70 68 61 49 44 45 49 51 50 49 50 54 56 54 51 51 51 51 50 49 48 48 48 48 48 49 50 49 49 48 46 46 46 46 45 43 41 40 39 39 39 39 37 36 35 35 36 37 39 46 57 70 82 93 103 107 105 101 97 95
73 73 74 74 74 74 73 72 72 73 74 74 73 74 76 78 78 76 75 75 75 75 72 69 66 64 61 55 46 42 43 45 47 48 50 51 53 53 50 48 49 49 48 47 47 46 46 46 46 47 49 49 49 49 47 46 45 46 46 44 43 41 40 39 38 38 38 37 36 35 34 35 37 38 42 50 63 75 86 97 105 108 107 101 96
74 75 75 75 75 74 73 72 72 72 73 73 73 73 75 76 77 76 74 74 73 72 69 65 63 60 55 50 45 42 43 43 43 43 47 49 51 52 50 47 47 47 46 45 45 44 44 44 45 47 48 49 49 48 46 46 45 45 46 44 42 42 40 38 38 38 37 37 36 35 33 34 36 37 39 44 55 67 79 90 100 109 110 106 100
75 75 75 75 75 74 73 72 72 72 71 72 72 72 72 73 74 74 73 72 71 70 67 63 60 57 52 47 44 42 43 44 44 42 44 46 48 50 49 47 47 46 44 43 43 42 42 44 45 47 47 47 47 47 46 46 46 45 45 44 42 42 40 38 38 38 37 36 36 35 34 33 35 36 37 40 48 59 71 82 94 105 108 106 104
75 75 75 75 74 74 73 72 72 72 71 70 70 71 71 71 72 71 71 70 69 67 65 62 58 54 50 45 42 41 41 42 43 43 44 45 46 47 48 47 46 46 44 41 40 40 41 43 45 46 46 45 45 45 45 45 45 45 44 43 42 42 40 38 37 37 37 36 36 36 35 34 34 35 36 38 42 51 63 75 87 99 103 103 105
75 75 75 75 74 73 72 72 72 71 70 69 69 69 70 70 70 69 68 68 66 65 64 61 57 52 49 44 40 39 39 40 41 42 43 44 45 46 46 46 46 45 43 41 39 39 41 43 45 46 45 44 44 44 44 44 45 44 44 43 43 41 40 38 37 37 36 36 36 36 35 34 34 35 36 37 39 45 54 66 77 90 98 101 106
74 74 74 74 73 72 72 71 71 70 69 68 68 68 68 68 69 68 68 66 65 64 62 59 55 50 46 43 39 38 37 39 41 41 41 42 44 44 45 46 46 44 42 41 40 40 41 42 44 44 44 44 44 43 43 44 44 43 43 43 42 41 39 38 37 36 36 36 36 36 36 35 34 34 35 36 38 41 47 57 68 80 91 98 105
73 73 73 73 72 71 71 70 70 69 68 67 67 67 66 66 67 67 67 65 63 63 61 57 53 48 44 41 38 36 36 37 39 41 41 41 42 43 44 45 46 44 42 41 40 40 41 42 43 44 43 43 43 42 42 43 43 43 43 43 42 41 39 38 37 36 36 35 36 36 36 36 35 34 34 35 37 39 43 50 59 71 83 93 101
72 72 72 71 70 70 70 69 68 67 67 66 66 66 65 65 64 64 65 63 62 62 59 55 51 46 42 40 37 35 34 35 37 40 41 42 42 43 44 44 45 45 43 42 40 40 41 44 44 43 43 42 42 42 42 42 42 43 43 42 41 40 38 38 38 37 35 35 36 36 37 36 35 34 35 35 36 38 41 45 51 60 73 85 96
71 71 70 70 69 68 68 68 67 66 65 65 65 64 63 63 63 62 63 62 60 60 57 52 49 45 40 38 36 33 33 33 35 38 41 42 42 43 43 43 43 43 44 44 42 40 42 45 45 43 42 41 41 41 41 41 42 42 42 41 40 39 38 38 38 37 35 35 36 36 37 37 36 35 35 36 36 38 40 43 46 52 63 76 87
70 70 69 68 68 67 67 66 65 64 64 63 63 62 62 63 62 61 61 59 57 57 55 50 48 43 39 36 35 32 32 32 34 37 39 41 41 41 42 42 42 41 42 43 43 42 42 43 43 42 41 40 40 40 40 41 41 42 41 40 39 39 38 38 37 37 36 35 36 36 37 37 37 36 35 35 37 38 39 41 43 47 54 65 78
70 69 68 67 66 66 66 65 64 63 62 62 62 61 61 61 61 59 58 57 55 54 52 49 47 43 38 35 34 32 31 31 33 35 37 38 39 39 39 40 40 39 39 40 42 42 42 41 41 41 40 39 39 39 39 40 41 40 40 39 39 38 38 38 37 36 35 36 36 37 37 38 38 37 36 36 36 38 39 40 42 45 48 55 67
68 67 67 66 65 65 65 64 63 62 62 61 60 60 60 60 60 58 56 55 53 51 50 48 46 42 37 34 33 32 30 30 31 32 34 35 36 36 36 37 38 37 36 37 39 41 41 41 41 41 40 39 38 38 38 39 39 39 39 39 39 38 37 37 37 36 35 36 37 37 37 38 38 37 37 36 36 37 39 40 41 43 46 50 57
66 66 65 64 64 64 63 62 61 60 60 60 59 58 59 59 58 56 54 52 52 50 48 46 45 41 36 34 33 32 30 30 30 31 32 33 34 35 34 34 35 35 35 35 38 39 40 40 40 40 39 38 37 37 38 39 39 38 38 38 38 38 37 37 36 35 36 36 37 37 38 38 38 38 37 37 37 37 38 39 40 41 44 47 51
65 64 64 63 63 62 61 60 59 59 58 58 58 57 57 58 57 56 53 50 49 49 47 44 43 40 36 34 33 32 31 30 29 30 30 31 33 33 32 31 32 33 34 35 37 38 39 39 40 39 38 37 36 36 37 38 38 38 38 37 37 37 37 36 35 35 36 37 37 38 38 38 38 38 38 37 37 37 37 38 39 40 42 44 47
63 63 63 62 62 61 60 59 58 58 58 57 57 57 57 57 57 55 52 49 47 48 46 43 41 39 36 34 33 32 31 30 29 29 30 31 31 32 31 31 30 32 34 35 36 37 38 39 39 38 37 36 35 36 37 38 38 37 37 36 36 37 36 35 35 35 36 36 37 38 38 38 37 38 38 37 37 36 36 37 38 39 40 43 45
62 62 61 61 60 60 59 59 58 57 57 57 56 56 56 56 56 55 52 48 46 46 45 43 40 39 37 35 34 33 31 30 29 28 29 30 31 30 30 30 30 32 34 35 36 37 38 39 38 37 36 34 34 35 37 37 37 36 36 35 36 36 35 35 34 35 36 36 36 37 37 37 37 37 37 37 36 36 35 36 37 38 38 40 43
60 60 60 59 59 59 58 58 58 57 56 56 55 55 55 55 55 55 52 48 45 44 44 43 40 38 37 35 34 33 31 30 29 29 29 30 30 30 29 30 31 32 33 35 36 37 38 38 37 36 34 33 33 35 36 36 36 35 35 35 35 34 34 34 35 35 36 36 36 36 36 36 37 36 37 37 36 35 35 35 35 35 36 38 41
59 59 58 58 58 58 58 58 57 57 56 55 55 54 54 55 55 54 51 47 44 43 43 42 40 37 36 35 34 32 32 31 30 30 30 30 29 29 29 30 31 31 33 35 37 38 38 37 36 35 33 32 33 35 36 36 35 34 34 34 33 33 33 34 35 34 34 35 35 35 35 36 36 36 36 36 35 33 33 33 32 33 34 36 38
57 57 57 57 57 57 58 57 57 57 56 55 54 54 55 55 55 53 51 47 44 42 41 41 39 36 34 34 33 32 31 31 31 30 29 29 29 29 30 30 31 31 32 34 37 37 37 36 35 33 32 32 33 35 35 35 34 33 33 33 32 32 34 35 34 33 32 33 35 34 34 35 36 37 36 35 33 31 31 31 31 31 32 33 35
56 57 57 57 57 57 57 57 57 56 56 55 54 55 55 55 54 52 49 46 43 40 39 39 38 35 33 33 32 31 30 30 30 30 29 28 28 29 30 31 30 31 32 34 36 37 36 35 33 32 31 32 34 35 35 34 33 32 32 32 32 33 34 34 33 31 30 31 33 33 33 34 36 37 37 35 32 30 30 30 30 29 30 31 33
56 57 57 57 57 57 57 57 57 56 56 55 55 55 55 55 53 50 48 45 42 39 38 37 36 34 32 32 32 30 28 28 29 29 28 27 28 29 30 30 30 30 31 34 35 36 35 34 31 31 31 33 34 34 34 34 32 30 30 31 32 33 34 34 32 30 28 29 31 33 34 35 36 36 36 35 32 30 28 28 28 28 28 29 31
57 58 58 57 57 57 57 57 57 57 57 56 55 55 55 53 51 49 46 43 41 38 37 36 35 33 31 31 30 29 28 28 29 29 28 28 29 29 29 29 29 30 31 33 34 35 34 32 30 30 32 33 33 33 33 33 31 28 28 30 32 33 33 32 31 29 28 29 31 33 34 35 36 36 36 35 32 30 28 27 27 27 27 27 29
57 58 58 57 57 57 57 57 57 57 57 57 56 55 54 52 49 47 44 42 39 37 36 35 34 31 29 29 29 29 29 29 28 29 29 29 30 29 28 28 29 30 31 33 34 34 33 30 30 31 32 33 33 33 33 32 30 27 27 29 31 31 32 31 30 30 29 30 31 33 34 35 35 36 36 35 32 30 28 27 26 27 26 26 28
58 58 58 57 57 57 57 57 57 58 57 57 55 54 52 49 47 44 42 41 38 36 34 34 33 30 28 28 28 29 29 29 29 28 29 29 30 29 27 28 29 30 32 32 33 33 32 31 31 32 32 32 32 32 31 30 28 26 26 28 29 31 32 32 31 30 30 30 31 33 34 35 36 36 36 35 32 30 29 28 26 26 26 25 26
58 58 58 58 58 57 57 57 57 57 57 56 54 52 50 47 45 43 41 39 37 35 33 33 32 29 28 28 28 29 29 30 30 29 27 28 28 27 27 28 29 31 32 32 33 33 32 31 31 31 31 31 31 30 29 29 28 27 27 28 29 30 32 32 31 30 30 29 31 32 33 34 36 37 36 35 33 32 30 29 26 25 25 25 25
58 58 58 58 58 58 58 58 57 57 56 55 53 51 48 46 43 41 39 38 36 34 32 32 31 29 27 28 29 29 30 31 30 28 26 26 26 26 27 29 30 31 32 32 33 32 32 31 30 29 30 30 30 29 29 29 29 27 26 27 28 29 30 32 32 31 31 30 30 31 33 34 36 36 36 35 34 33 31 30 27 25 24 24 24
60 59 59 59 59 59 58 58 57 56 55 53 51 49 47 45 42 40 39 37 35 33 32 31 31 28 27 27 29 30 31 31 30 27 26 25 26 27 28 29 30 31 31 32 32 32 32 30 29 29 29 30 30 30 30 29 28 27 26 26 27 28 30 31 32 32 32 30 30 31 33 34 35 35 35 35 34 33 32 30 28 26 25 24 24
61 61 60 60 59 59 58 58 57 55 53 51 50 49 47 44 41 39 38 36 34 32 31 31 30 28 26 27 28 29 30 30 28 27 25 25 26 27 29 30 31 31 31 32 32 32 31 30 29 29 30 30 29 29 29 29 28 27 27 27 27 29 30 31 32 33 33 32 30 30 32 33 34 34 35 35 35 34 32 30 29 27 25 24 23
62 62 61 60 59 58 57 56 55 54 52 51 49 48 47 45 41 38 37 35 33 31 30 30 29 28 26 26 27 28 29 29 28 26 25 25 27 28 30 31 31 31 31 31 31 31 31 30 29 29 29 29 29 29 29 29 28 27 28 28 28 29 29 30 31 33 34 33 32 31 32 32 33 33 34 34 35 34 32 30 29 27 25 24 23
62 61 60 59 58 57 56 55 54 54 53 51 49 47 45 44 42 38 36 34 32 31 29 29 29 28 26 26 27 27 28 28 27 26 25 26 28 29 31 31 31 31 32 31 31 31 31 30 29 29 29 29 29 29 29 29 29 28 28 28 28 28 28 29 30 32 34 34 34 33 32 31 31 31 32 33 35 35 33 31 30 28 26 25 24
61 60 58 58 57 57 56 55 55 54 53 51 49 47 44 42 41 38 35 33 32 30 29 28 28 27 26 26 26 27 26 26 26 26 26 27 29 30 31 31 31 31 32 31 30 30 30 29 29 28 29 29 29 30 30 30 29 29 28 27 27 27 27 28 30 31 33 34 34 33 32 31 31 31 31 33 34 35 34 32 30 29 27 26 25
60 59 58 57 57 57 56 56 55 54 53 50 48 46 43 41 39 37 35 33 32 30 29 28 27 27 27 26 26 26 26 25 26 26 27 28 29 31 31 32 32 32 31 30 29 29 29 29 29 29 29 30 30 30 30 30 29 29 28 27 27 27 27 28 29 31 32 33 33 33 32 32 31 31 31 32 33 34 34 33 31 30 28 27 26
60 60 59 59 58 58 57 56 55 53 52 50 47 45 43 40 38 36 34 32 31 29 28 28 28 27 27 26 26 27 26 25 26 27 28 29 30 31 32 32 32 31 30 29 29 28 29 29 29 30 30 30 30 30 30 30 30 29 28 27 26 26 27 28 28 29 31 32 33 33 33 32 32 31 30 31 31 32 33 33 32 31 29 28 27
60 60 60 59 59 58 57 56 55 53 51 49 47 44 42 39 36 34 33 31 30 29 28 28 27 27 27 27 27 27 27 26 27 28 29 30 31 32 32 32 31 31 30 29 29 29 30 30 29 30 30 30 30 31 31 30 29 28 27 27 27 26 27 27 27 28 30 31 32 33 33 32 32 31 30 30 30 30 31 32 32 32 30 29 28
60 60 59 59 59 58 58 57 55 53 51 49 46 43 40 37 34 32 31 30 29 29 28 28 27 27 27 27 27 28 28 27 27 29 30 31 32 32 31 32 32 31 30 29 29 29 30 29 29 29 30 30 30 31 31 30 29 28 28 27 27 26 26 26 27 28 29 30 31 32 33 33 32 31 30 30 29 30 30 31 32 32 31 31 30
62 61 60 59 58 58 56 55 53 51 49 46 43 41 38 35 33 31 30 29 28 28 28 28 27 27 28 28 28 28 29 28 28 29 31 32 32 32 32 32 32 31 30 29 29 29 29 29 29 29 30 30 30 31 31 30 29 28 28 27 27 26 26 26 26 27 28 29 31 32 33 33 33 31 30 29 29 29 30 30 31 32 33 32 31
61 60 59 57 55 53 51 49 47 46 45 43 41 38 36 34 32 30 29 28 27 27 28 28 28 28 29 28 28 29 30 30 29 30 31 32 32 32 33 33 32 31 30 30 30 30 29 29 29 29 30 30 30 31 31 30 29 29 28 28 27 27 26 26 26 26 27 29 30 32 32 33 33 32 31 30 29 29 30 30 31 33 34 34 33
57 56 54 52 50 49 47 45 44 43 42 41 40 37 35 33 31 30 28 27 26 27 27 28 28 29 29 29 29 29 30 31 30 31 32 32 32 33 34 34 32 31 30 30 30 30 29 29 29 30 30 30 30 31 31 31 30 30 29 28 28 27 27 26 26 26 27 28 29 30 31 32 32 32 31 30 30 30 30 31 32 33 34 35 34
52 51 50 48 47 46 45 45 44 43 42 40 39 37 34 32 30 29 28 26 26 26 27 28 29 30 30 30 30 30 31 31 31 32 32 32 32 33 34 34 33 31 31 31 30 30 29 29 29 30 30 30 30 31 31 31 31 31 30 29 29 28 27 27 26 26 26 27 27 28 30 31 31 31 31 30 30 30 31 31 32 33 34 35 35
51 49 48 46 46 45 45 45 44 44 42 40 38 36 33 31 29 28 27 26 26 26 26 27 28 29 30 31 30 31 31 32 33 33 33 33 33 34 35 34 33 32 31 31 31 30 30 29 29 30 30 30 30 31 31 31 31 31 31 30 30 29 28 27 27 26 26 26 26 27 28 29 30 30 30 30 30 30 31 31 32 33 34 35 36
50 49 47 46 45 45 44 44 43 42 41 39 37 34 32 30 28 27 26 25 25 26 26 26 27 28 30 31 31 31 32 33 34 34 34 34 35 35 36 35 34 33 32 32 31 31 30 30 30 30 30 31 31 31 31 31 31 32 31 31 31 30 29 28 27 27 26 26 26 27 27 28 29 29 30 30 30 31 31 31 32 33 34 35 36
49 48 47 46 45 44 43 42 40 39 38 37 35 33 31 29 27 26 25 24 24 25 26 26 27 27 28 30 31 32 32 33 35 35 35 35 35 36 36 36 36 35 34 33 32 32 31 31 30 30 31 31 31 32 31 31 32 32 32 32 31 31 30 29 29 28 27 27 27 27 27 27 28 29 29 30 30 31 31 31 32 32 34 35 36
48 47 46 45 45 43 42 40 38 37 36 35 34 32 30 28 27 25 25 24 23 24 25 27 27 27 27 28 30 31 32 33 35 36 36 36 36 37 37 37 37 36 35 34 33 33 32 32 31 31 31 31 32 32 32 32 32 33 33 33 32 32 31 31 30 29 28 28 28 27 27 27 28 28 29 29 30 30 31 31 32 32 33 35 36
46 45 44 44 43 41 40 39 37 35 34 33 32 31 30 28 27 25 24 23 23 23 24 26 27 28 28 27 28 30 31 33 34 36 37 37 38 38 38 38 38 38 37 36 35 34 33 32 32 32 31 32 32 32 32 33 33 33 33 33 33 33 32 32 31 30 29 29 28 28 28 28 28 28 28 29 30 30 31 32 32 33 33 34 35
44 43 42 41 40 39 37 36 35 34 33 32 31 30 29 28 27 25 24 23 23 23 23 24 26 28 29 29 28 29 30 32 33 35 36 37 38 38 39 39 39 39 38 37 36 35 34 33 33 32 32 32 32 32 33 33 33 33 33 33 33 33 33 32 32 31 30 30 29 29 28 28 28 28 29 29 29 30 31 32 32 33 34 34 35
43 42 40 39 38 37 35 34 33 33 32 31 30 29 29 28 27 26 24 22 22 22 22 23 25 27 29 30 30 30 30 31 32 34 35 36 37 37 38 38 39 39 39 38 37 37 36 35 34 33 33 33 33 33 33 34 34 34 34 34 34 34 33 33 33 33 32 31 30 30 29 29 29 29 29 29 29 30 30 31 32 33 34 35 35
42 41 40 39 37 36 35 34 33 32 31 31 30 29 28 27 26 25 24 23 22 22 22 23 24 25 28 30 31 31 30 31 32 33 34 35 36 36 37 38 38 38 38 38 38 37 37 36 35 34 34 33 34 34 34 34 34 35 35 35 35 34 34 34 34 34 33 33 32 31 31 30 30 29 29 29 29 30 30 31 32 33 34 35 35
41 41 40 39 38 37 36 34 33 32 31 30 29 28 27 26 25 25 24 23 22 21 22 22 23 24 26 29 31 31 31 31 31 32 33 34 35 36 36 37 38 38 38 38 38 37 37 37 36 35 35 34 34 34 34 35 35 35 35 35 35 35 35 35 35 35 35 34 34 33 32 31 31 30 30 30 30 30 30 30 31 32 32 33 34
41 40 40 39 38 37 36 35 34 33 32 30 29 28 27 26 25 24 23 22 22 21 21 22 22 23 25 27 30 31 32 32 32 32 32 34 35 36 36 37 38 38 38 38 38 38 38 37 37 37 36 36 35 35 35 35 35 35 36 36 36 36 36 36 36 36 36 35 35 34 34 33 32 32 31 31 30 30 30 30 30 31 31 32 32
40 40 39 39 38 37 36 35 34 33 32 31 29 28 27 27 25 24 23 22 21 21 21 21 22 22 24 25 28 30 32 33 33 32 32 33 34 35 36 37 37 38 39 39 39 39 39 38 38 38 38 37 37 36 36 36 36 36 36 36 36 36 36 36 36 36 36 36 36 36 35 34 34 33 33 32 31 31 31 31 30 30 31 31 31
Wind_Direction
307 307 308 307 308 308 309 310 311 312 312 313 314 315 316 316 317 318 318 318 318 318 317 316 315 315 315 311 297 276 266 263 258 253 252 256 258 257 256 255 253 253 254 255 255 257 259 260 261 261 260 261 263 264 262 257 253 250 248 248 248 250 252 253 255 257 259 261 261 262 262 259 254 246 238 232 226 222 219 216 214 214 214 216 216
307 306 307 307 307 308 310 311 312 312 313 314 315 316 317 317 318 319 320 319 319 318 317 315 315 315 314 310 296 277 268 264 260 256 252 251 254 257 257 255 253 253 253 254 255 256 258 259 260 259 259 261 263 263 261 256 252 249 248 247 247 249 251 252 254 255 257 259 260 261 261 258 255 249 242 235 229 224 220 217 215 215 215 217 217
306 306 306 307 308 309 310 311 312 313 314 315 316 317 318 319 319 320 321 320 319 318 317 315 315 315 313 309 297 283 271 262 259 259 257 255 254 256 257 254 252 252 253 254 255 256 258 258 258 258 258 261 263 262 260 255 250 248 247 246 246 248 250 251 252 254 256 258 259 260 260 258 255 251 246 239 232 227 223 219 216 216 217 217 217
306 306 306 307 307 308 309 310 311 312 313 315 316 317 318 319 319 320 321 320 319 319 317 315 315 315 312 307 299 289 275 263 258 257 258 259 258 258 258 254 251 252 252 254 255 256 257 258 257 256 258 261 262 261 259 254 250 248 246 246 246 247 249 250 251 253 254 256 258 259 259 259 256 253 248 243 236 229 225 222 218 217 219 218 217
305 305 305 306 306 307 308 310 311 312 313 314 316 317 318 319 319 320 320 320 319 319 317 315 314 314 312 306 300 292 279 266 262 259 258 260 261 260 259 254 251 251 252 254 256 257 257 257 256 256 258 260 261 261 258 253 250 249 246 245 245 246 248 250 251 252 254 255 257 258 259 258 257 254 250 245 240 233 228 225 221 220 220 219 216
305 305 305 305 305 306 308 309 310 311 313 314 315 317 318 319 319 319 320 320 319 319 317 314 312 313 311 306 300 293 280 267 263 262 260 261 262 261 258 253 251 252 252 254 257 258 257 257 257 256 258 259 259 259 257 252 250 249 247 245 245 246 248 249 251 251 252 255 256 257 259 258 257 255 252 247 243 237 232 227 224 222 221 220 218
304 304 304 304 305 306 307 308 310 311 313 314 315 317 318 319 319 319 319 319 319 318 316 312 310 310 310 306 299 292 282 269 265 265 265 263 262 261 258 252 250 251 252 254 257 258 257 258 257 255 255 257 258 258 255 251 249 248 246 245 245 246 248 249 251 251 252 254 255 256 257 258 257 256 254 250 245 241 236 231 227 224 222 221 220
304 304 304 304 305 306 307 308 309 311 313 314 315 317 318 319 319 318 319 319 319 319 316 311 308 308 307 305 299 292 283 273 268 266 265 263 261 259 257 254 252 251 251 253 256 257 256 257 257 254 253 254 256 257 254 249 248 248 246 245 245 246 248 250 251 252 253 253 255 256 257 257 257 256 255 252 247 243 239 235 231 227 224 222 221
304 303 304 304 305 306 306 308 309 311 313 314 315 316 318 319 319 317 317 318 319 319 316 310 306 305 304 303 299 292 285 276 269 266 264 263 262 260 258 257 255 253 252 252 255 255 254 255 257 254 252 253 255 256 253 248 247 248 246 244 245 246 248 250 252 253 254 254 254 255 256 257 256 256 255 253 250 245 242 238 235 231 227 224 222
304 304 304 304 304 305 306 307 309 310 312 312 314 315 316 317 318 316 316 317 318 320 318 310 304 303 302 301 298 292 285 277 269 266 264 264 264 263 261 260 258 256 254 252 252 254 254 255 256 254 251 252 254 254 252 248 247 247 246 244 245 247 248 250 252 255 255 254 254 254 256 257 256 255 254 254 252 249 244 240 237 235 231 227 224
304 304 304 304 304 305 306 307 308 310 311 312 313 314 315 316 317 316 315 315 317 319 319 312 305 301 299 297 296 291 285 277 270 267 265 265 266 265 264 262 260 257 256 253 250 252 256 255 254 252 250 251 253 253 251 248 247 247 245 244 245 246 248 250 253 255 256 255 255 254 255 256 256 255 254 253 253 251 247 243 239 238 234 230 227
304 304 304 304 305 305 306 307 308 309 310 311 312 313 314 315 316 315 314 314 315 317 318 315 308 300 295 294 293 289 284 278 272 269 268 267 267 266 264 263 260 257 257 255 250 251 255 254 252 251 249 249 252 252 249 247 247 246 244 244 245 246 248 251 253 255 256 256 255 254 255 255 255 255 254 252 252 251 249 245 241 239 237 234 231
304 304 304 305 305 305 306 307 309 309 310 311 312 313 313 313 314 314 312 311 313 314 316 316 312 302 293 290 290 287 283 278 272 270 269 269 268 265 263 262 260 258 257 255 251 251 253 252 250 250 248 249 251 251 248 247 246 245 243 243 244 246 248 251 254 256 256 256 255 254 254 254 255 255 253 252 251 251 249 247 244 241 240 237 234
304 304 304 305 305 306 307 308 308 309 309 310 310 311 311 312 313 313 310 309 310 312 313 314 314 306 293 287 288 286 281 276 272 270 270 269 268 266 262 261 260 259 256 254 252 252 251 249 248 248 247 248 250 249 247 246 245 243 242 243 244 246 249 252 255 256 256 256 255 255 254 254 254 254 253 251 250 250 249 248 245 243 241 240 237
305 305 305 305 305 306 306 307 307 307 308 308 309 309 310 311 312 312 310 307 307 310 310 310 312 309 297 287 286 284 279 275 273 271 270 270 269 267 263 259 257 257 256 253 252 251 249 247 246 245 246 248 249 249 246 245 244 243 242 242 244 246 250 253 255 257 257 256 255 255 254 253 253 253 252 251 250 249 248 248 246 245 243 241 240
305 305 305 306 306 306 307 307 307 307 307 308 308 309 309 309 311 311 309 306 305 307 308 307 307 307 301 290 285 283 279 275 273 271 270 270 269 267 264 257 254 255 256 254 251 248 246 246 244 244 246 248 249 248 246 245 244 243 242 242 244 247 250 253 255 257 257 256 255 255 254 252 251 251 250 250 249 248 248 248 246 246 244 242 241
305 306 306 306 306 307 307 306 306 306 306 307 308 308 308 308 310 311 309 305 303 304 306 306 303 303 302 294 286 282 278 275 273 270 269 269 269 267 262 256 253 254 256 254 249 245 244 244 244 244 246 248 248 246 245 244 244 243 242 242 243 247 251 253 255 257 257 256 255 254 253 251 249 247 247 247 247 247 248 248 247 246 245 243 241
306 306 306 306 306 306 306 306 306 306 306 307 307 307 307 309 310 310 308 304 301 301 303 304 301 298 299 296 288 281 277 273 271 270 269 269 269 265 259 253 253 255 255 252 248 244 242 243 243 244 246 248 247 245 244 244 244 243 242 242 244 248 251 253 255 257 256 256 255 253 252 250 247 244 242 242 244 246 247 248 248 248 247 245 242
305 305 305 305 305 305 306 306 306 306 307 307 307 307 308 309 309 309 307 303 300 299 300 302 300 295 293 294 289 281 275 271 270 270 269 268 267 263 255 252 254 256 253 249 246 243 242 242 242 244 246 247 246 244 244 243 243 242 241 243 246 250 251 252 254 255 256 255 254 252 249 248 245 242 240 239 241 245 248 249 250 250 249 247 244
305 306 306 306 306 306 306 306 306 307 307 307 307 308 308 309 309 308 306 302 298 296 297 299 300 294 289 289 287 280 273 270 269 269 268 267 264 258 252 251 254 255 250 246 243 242 241 241 242 244 245 245 244 244 244 243 242 241 241 244 248 250 250 251 254 255 254 253 253 252 248 244 242 240 238 238 239 243 248 251 252 253 252 249 244
306 306 306 306 306 306 306 307 307 307 307 307 308 308 308 308 308 306 305 301 296 294 294 296 298 294 287 284 283 278 273 270 269 268 266 263 259 254 250 251 254 252 248 244 242 241 240 240 241 243 244 244 243 243 243 243 240 239 241 245 248 249 249 252 254 254 253 251 251 250 246 241 237 236 235 236 238 241 246 251 254 255 254 251 246
307 307 307 307 307 307 307 307 307 307 307 308 308 308 308 308 307 306 304 301 296 292 292 293 296 294 286 282 279 275 271 269 267 266 263 259 255 251 249 251 252 249 245 242 241 240 240 239 241 243 243 243 243 242 243 242 239 238 242 246 248 248 250 253 255 254 251 247 245 244 243 239 235 234 233 234 237 240 244 250 255 257 256 253 248
308 308 308 308 308 308 308 307 307 307 308 308 309 309 308 307 307 305 304 301 295 291 290 291 293 292 286 280 276 271 266 266 266 264 261 257 254 251 249 249 249 245 241 240 239 240 240 240 241 242 242 242 242 242 243 241 238 237 242 246 248 250 252 254 255 252 246 242 239 238 238 237 234 233 233 234 236 239 243 249 254 257 257 254 249
308 308 308 308 308 307 307 307 307 308 309 309 309 309 308 307 306 305 303 300 295 289 288 289 291 290 283 278 275 269 264 264 266 265 261 256 253 250 248 247 245 242 239 238 239 240 240 240 241 241 242 242 242 242 242 240 238 238 242 247 250 252 253 253 252 248 243 238 236 234 234 234 234 233 233 234 236 239 242 246 251 255 258 256 251
308 308 308 307 307 307 308 308 309 309 310 309 309 308 307 306 305 304 303 300 295 289 286 286 289 288 280 274 273 270 265 262 264 265 261 254 249 247 245 243 242 240 238 238 239 239 239 239 240 241 242 242 242 242 242 240 239 239 242 246 249 250 251 250 249 246 241 237 234 233 231 231 232 233 233 234 236 238 241 244 248 252 256 257 253
308 308 308 308 309 309 309 309 310 310 310 309 308 308 306 306 305 304 302 300 294 288 284 284 286 285 277 269 269 270 267 264 263 264 259 251 246 243 241 239 238 237 237 237 238 239 239 240 241 242 243 243 242 242 240 238 238 238 241 245 248 250 251 251 249 245 241 236 233 232 229 228 230 233 233 234 235 236 239 243 246 249 253 255 254
309 309 310 310 310 310 310 310 310 310 310 309 309 308 307 306 305 303 301 299 294 287 282 281 283 283 276 268 266 268 269 266 263 261 256 248 243 241 239 238 236 235 235 236 238 239 240 241 242 242 243 243 241 240 238 237 237 239 241 245 248 250 250 251 249 246 242 236 232 231 229 227 229 232 234 234 235 235 237 240 243 246 250 253 254
311 311 311 311 311 311 311 311 310 310 310 309 309 308 307 306 305 303 300 297 293 286 280 278 280 281 276 268 264 266 269 267 262 258 254 247 242 239 238 236 236 235 235 236 237 239 241 242 242 241 240 240 239 238 236 236 237 238 241 243 246 247 247 248 248 247 245 239 234 231 230 229 230 232 235 236 236 236 236 237 240 243 246 249 252
312 312 312 311 311 311 311 311 311 310 310 310 309 309 307 305 304 302 299 296 292 286 279 276 277 279 276 269 265 266 268 265 259 254 251 246 241 238 237 236 236 235 235 236 237 239 241 242 242 240 239 238 238 236 235 235 236 238 240 242 244 244 245 245 244 245 245 242 237 233 231 230 230 231 234 236 238 238 236 235 237 241 243 246 249
312 312 312 312 312 312 311 311 311 311 311 310 309 309 307 305 302 300 297 294 290 284 278 274 275 276 276 270 265 265 267 263 255 249 247 244 240 238 237 236 236 236 236 236 237 238 240 241 241 240 239 238 237 235 234 235 235 236 239 242 243 244 244 244 243 242 242 241 239 235 233 230 229 230 232 235 238 239 237 234 235 238 241 243 245
313 312 312 312 312 312 312 312 312 312 311 310 309 308 307 305 302 299 296 292 288 283 277 273 272 274 275 270 265 264 265 261 253 246 243 241 239 238 237 237 236 236 236 236 237 238 240 241 241 240 239 238 235 234 233 233 234 236 239 242 244 245 244 243 242 241 241 240 239 237 235 233 230 229 229 231 235 238 238 234 233 235 237 240 242
314 314 314 314 314 314 314 313 313 312 311 311 309 308 306 304 302 298 294 290 286 281 275 271 269 271 272 269 264 261 262 259 252 245 241 239 238 238 237 237 236 236 237 237 238 239 241 241 240 239 238 236 234 232 232 233 234 237 239 242 243 244 243 242 241 241 240 240 239 238 236 235 232 230 228 227 230 234 236 235 232 232 234 237 239
316 316 316 315 315 314 314 314 313 312 311 310 309 307 306 303 300 297 292 287 283 278 273 269 266 266 268 267 262 258 259 258 252 246 242 239 238 237 237 236 236 236 236 237 238 240 240 240 239 237 236 234 233 232 232 233 234 236 238 241 243 243 242 242 242 242 241 240 239 237 236 235 234 232 229 227 227 230 233 234 232 231 232 234 237
317 317 316 316 315 315 314 314 313 312 312 311 309 308 306 303 299 295 290 284 280 275 270 266 264 262 264 264 259 254 253 252 249 245 242 240 238 237 236 236 236 236 236 237 237 238 239 238 237 235 235 234 233 232 231 232 233 235 237 240 242 241 242 243 243 242 241 240 239 237 236 235 235 234 232 229 228 228 230 232 231 229 229 232 235
317 316 316 316 315 315 315 314 313 313 312 311 310 308 305 302 298 293 287 282 277 272 267 263 261 259 260 261 257 250 247 247 245 243 242 240 238 238 237 236 236 236 235 235 235 236 237 237 236 235 235 234 232 231 231 232 233 234 236 239 240 240 241 242 242 241 241 241 240 239 238 236 236 235 234 232 230 228 228 230 230 228 227 229 233
316 316 315 315 315 314 314 313 313 313 312 311 309 308 305 302 298 292 286 280 274 269 264 261 258 256 256 257 254 247 243 243 243 241 241 240 238 238 237 236 235 235 235 234 234 234 235 236 236 235 234 233 232 231 231 232 232 233 235 237 239 240 240 239 239 240 242 242 241 240 239 239 238 237 235 234 232 230 228 228 228 227 226 227 230
315 315 314 314 314 314 314 313 313 313 312 311 310 308 306 303 298 292 286 279 272 267 262 258 256 254 253 253 251 245 240 239 240 240 239 239 239 238 237 236 236 235 235 234 234 233 233 234 234 234 233 232 231 231 231 231 231 232 234 236 238 239 239 238 238 238 239 240 241 240 240 239 239 238 237 235 233 231 229 228 227 225 225 226 229
315 315 315 315 315 315 315 315 315 315 314 313 312 310 308 304 300 294 287 279 272 265 260 256 253 251 249 249 248 244 238 236 237 237 238 238 238 238 237 237 236 236 236 235 234 233 232 231 232 233 232 231 230 229 229 230 230 231 233 234 236 237 238 237 237 237 237 239 240 241 241 240 239 239 237 236 233 231 229 227 225 224 223 224 227
317 317 317 317 318 318 318 318 318 317 317 316 315 313 310 306 301 296 289 281 272 265 259 255 252 249 247 246 245 242 237 234 234 235 235 236 236 237 237 237 236 235 235 236 235 234 232 231 231 232 232 231 229 228 227 228 228 229 231 232 233 234 235 236 236 236 237 238 239 241 241 241 240 239 237 235 233 230 228 226 225 223 222 223 226
318 318 318 319 319 319 319 319 319 319 318 317 316 314 311 307 302 297 291 283 273 265 259 255 252 249 246 244 243 241 237 233 232 232 233 233 233 234 235 236 236 235 235 235 235 235 234 232 231 232 232 232 230 229 227 227 227 228 230 231 232 232 233 234 235 235 236 236 238 239 240 240 240 239 236 234 231 229 227 226 225 223 222 222 224
319 319 319 319 319 319 319 319 319 319 318 317 316 314 311 308 303 298 292 284 275 266 258 254 252 249 247 244 243 240 237 233 231 230 230 231 231 232 233 234 234 234 234 234 234 235 234 233 232 231 232 232 232 230 229 228 228 228 229 230 231 232 232 232 233 234 234 235 236 237 238 238 238 237 235 233 230 228 226 226 225 224 223 222 223
319 319 319 318 318 319 319 319 319 318 317 316 315 314 312 308 304 298 293 286 277 268 259 253 250 249 248 245 243 240 237 234 231 230 229 229 229 230 231 232 232 232 232 233 233 233 234 234 233 232 231 232 232 232 231 230 229 229 229 230 231 231 232 233 233 233 234 234 235 236 236 236 236 235 234 232 230 228 227 226 226 225 224 223 223
320 320 319 319 319 319 319 319 318 318 317 316 315 314 312 309 305 299 293 287 280 271 261 253 248 247 248 247 245 242 238 235 232 230 229 229 229 229 230 231 231 231 231 231 231 232 233 233 233 232 232 231 232 232 231 231 231 230 229 229 230 230 231 231 232 232 233 233 234 234 235 235 235 234 233 232 230 229 228 227 227 226 226 225 225
321 321 321 321 321 321 320 320 319 318 317 316 315 314 312 310 306 301 295 288 281 274 265 256 248 244 244 246 246 244 240 236 234 232 231 230 229 229 229 230 231 231 230 230 230 231 232 232 232 232 232 232 232 231 231 231 232 231 230 230 229 229 230 230 230 231 232 232 232 233 233 234 234 234 233 232 231 230 229 228 228 228 228 227 227
323 323 322 322 322 322 321 321 320 319 318 318 317 316 314 312 308 304 297 290 282 275 268 260 252 245 240 241 243 243 241 238 235 233 233 232 231 230 229 230 230 231 230 230 230 230 231 231 231 232 232 232 232 232 231 231 231 232 231 231 230 230 230 230 230 230 230 231 231 231 232 233 233 234 233 232 232 231 230 230 230 229 229 229 229
325 324 324 323 323 323 322 322 321 320 319 318 318 316 315 313 310 306 301 293 284 277 270 263 256 248 242 238 238 239 240 239 237 235 234 233 233 232 231 230 230 230 230 230 230 231 231 231 231 231 232 232 232 232 232 232 232 232 232 232 231 231 231 231 231 230 230 230 230 230 230 231 232 233 233 233 232 232 231 231 231 231 231 231 231
327 327 327 326 326 325 324 323 323 321 320 319 319 317 316 315 313 309 304 297 288 279 272 265 259 252 246 240 237 236 237 238 238 237 236 235 234 234 233 232 230 229 229 230 231 231 231 231 231 231 231 232 233 233 233 232 232 232 232 232 232 231 231 231 232 232 231 231 231 230 230 230 230 231 232 233 233 233 232 232 232 232 232 232 232
330 330 330 329 328 328 327 326 325 323 322 320 319 318 317 316 314 311 307 301 292 283 275 268 261 255 249 244 239 236 236 237 237 237 237 236 235 235 235 235 233 231 229 229 229 230 231 231 231 231 231 232 232 233 233 233 232 232 232 232 232 231 231 231 232 232 232 232 232 232 232 231 230 230 230 231 232 232 232 232 232 233 233 233 233
332 332 332 331 330 329 329 327 326 325 323 322 321 320 318 317 316 314 310 305 297 289 280 272 265 258 253 247 242 238 236 236 237 237 237 237 236 235 235 235 235 234 232 230 229 228 229 230 230 231 231 231 231 232 233 233 233 232 232 232 232 231 231 231 231 231 232 232 233 233 233 232 231 230 230 230 231 231 232 232 232 232 233 233 233
333 333 332 332 331 330 330 329 328 326 325 324 322 321 320 318 317 315 312 307 301 294 286 277 269 262 256 251 246 242 238 235 236 237 238 238 237 236 235 235 235 235 235 233 231 229 228 229 229 230 230 231 231 231 232 232 232 232 232 232 231 231 231 231 231 231 231 232 232 233 233 233 233 232 231 230 231 231 231 231 232 232 232 233 233
335 334 333 332 331 331 330 329 328 327 326 325 323 322 320 319 317 316 314 310 304 298 291 284 276 267 260 254 250 246 242 238 235 235 236 238 239 239 237 236 235 235 235 235 234 233 231 229 229 229 230 230 230 231 231 231 232 232 231 231 231 231 231 231 231 231 231 231 232 232 233 233 233 233 232 232 231 231 231 232 232 232 232 232 233
Height
5465 5460 5455 5450 5444 5438 5433 5427 5421 5415 5411 5406 5400 5393 5386 5379 5374 5368 5362 5353 5345 5337 5329 5321 5313 5305 5297 5291 5288 5287 5289 5292 5295 5299 5303 5306 5309 5311 5315 5318 5320 5322 5324 5326 5327 5328 5330 5331 5333 5334 5334 5335 5337 5338 5339 5340 5342 5344 5345 5347 5348 5349 5350 5352 5352 5352 5351 5351 5352 5353 5354 5354 5355 5357 5359 5362 5365 5370 5378 5387 5398 5408 5416 5424 5431
5456 5451 5446 5440 5434 5429 5423 5418 5412 5406 5401 5396 5390 5384 5376 5369 5363 5358 5351 5344 5337 5329 5322 5315 5307 5300 5293 5287 5284 5284 5284 5286 5289 5292 5295 5298 5301 5304 5307 5310 5312 5314 5316 5318 5319 5321 5322 5324 5326 5327 5327 5328 5330 5331 5332 5333 5335 5337 5338 5340 5341 5343 5344 5345 5346 5346 5346 5346 5346 5347 5349 5349 5350 5351 5353 5356 5359 5363 5370 5378 5388 5397 5406 5414 5422
5446 5441 5436 5430 5424 5419 5414 5409 5404 5398 5392 5386 5381 5374 5367 5359 5352 5347 5341 5334 5328 5321 5314 5308 5301 5295 5289 5284 5281 5280 5280 5281 5283 5286 5288 5291 5294 5297 5300 5302 5305 5307 5309 5310 5311 5313 5315 5317 5319 5320 5321 5322 5323 5324 5325 5326 5328 5330 5331 5333 5335 5336 5338 5340 5341 5341 5341 5340 5341 5342 5343 5344 5344 5346 5348 5350 5353 5357 5363 5370 5379 5387 5395 5404 5413
5436 5431 5425 5421 5415 5410 5405 5400 5395 5390 5384 5377 5372 5366 5360 5352 5344 5338 5332 5326 5319 5313 5307 5301 5295 5289 5284 5280 5277 5276 5275 5276 5278 5280 5283 5285 5288 5290 5292 5295 5297 5299 5301 5303 5304 5306 5308 5310 5312 5313 5314 5316 5316 5317 5318 5319 5321 5323 5325 5327 5328 5330 5332 5334 5335 5335 5336 5336 5335 5336 5338 5339 5340 5341 5343 5345 5348 5351 5356 5361 5369 5377 5384 5393 5403
5426 5421 5416 5411 5406 5401 5395 5390 5385 5380 5375 5369 5363 5357 5352 5345 5338 5331 5325 5319 5312 5306 5300 5294 5289 5284 5279 5275 5272 5271 5270 5271 5273 5275 5277 5279 5281 5283 5285 5287 5289 5292 5294 5296 5297 5299 5301 5303 5305 5306 5308 5309 5310 5310 5311 5312 5314 5316 5318 5320 5322 5324 5326 5328 5329 5330 5330 5330 5330 5331 5332 5334 5335 5336 5337 5340 5342 5345 5349 5354 5360 5366 5374 5383 5393
5417 5412 5406 5401 5396 5391 5386 5381 5376 5371 5365 5360 5354 5348 5343 5337 5330 5324 5318 5312 5306 5299 5293 5288 5284 5279 5274 5270 5268 5266 5266 5266 5268 5269 5271 5273 5275 5276 5278 5280 5282 5284 5287 5289 5291 5292 5295 5297 5298 5300 5301 5302 5303 5304 5305 5306 5307 5309 5311 5313 5315 5317 5320 5322 5323 5325 5325 5325 5326 5326 5326 5328 5330 5331 5332 5334 5337 5340 5343 5347 5351 5357 5364 5374 5383
5408 5402 5397 5392 5387 5382 5377 5372 5367 5361 5356 5350 5345 5339 5333 5328 5322 5316 5310 5305 5299 5293 5287 5282 5278 5274 5269 5266 5263 5261 5261 5261 5263 5264 5265 5267 5268 5269 5271 5273 5275 5277 5280 5282 5284 5286 5288 5290 5292 5293 5295 5295 5296 5298 5299 5300 5301 5303 5305 5306 5309 5311 5314 5315 5317 5319 5320 5320 5321 5321 5321 5323 5324 5326 5327 5329 5331 5334 5337 5340 5343 5348 5355 5363 5372
5398 5393 5387 5382 5377 5372 5367 5362 5357 5352 5347 5341 5336 5330 5325 5320 5314 5308 5303 5298 5293 5287 5281 5276 5272 5268 5264 5261 5258 5257 5256 5257 5257 5258 5259 5260 5261 5263 5264 5266 5269 5271 5273 5275 5278 5280 5282 5284 5285 5286 5288 5289 5290 5291 5293 5294 5295 5297 5298 5300 5303 5305 5308 5309 5311 5313 5314 5315 5316 5316 5317 5318 5319 5321 5322 5324 5326 5328 5330 5333 5337 5341 5346 5353 5362
5389 5384 5379 5373 5368 5363 5358 5353 5348 5343 5338 5333 5327 5322 5317 5312 5307 5302 5296 5291 5286 5281 5275 5269 5266 5263 5260 5256 5254 5252 5251 5251 5252 5253 5253 5254 5256 5257 5259 5260 5262 5265 5267 5269 5271 5273 5275 5277 5278 5280 5281 5282 5284 5285 5286 5288 5289 5290 5292 5294 5297 5300 5302 5304 5305 5307 5309 5310 5310 5311 5312 5312 5314 5316 5317 5318 5320 5322 5324 5327 5331 5334 5339 5345 5352
5379 5374 5370 5365 5359 5354 5349 5345 5340 5335 5330 5324 5319 5315 5310 5305 5300 5295 5290 5285 5280 5275 5269 5263 5259 5257 5255 5252 5249 5248 5247 5246 5246 5247 5248 5249 5250 5252 5253 5255 5257 5258 5260 5263 5265 5267 5268 5270 5272 5273 5275 5276 5278 5279 5280 5282 5283 5284 5286 5288 5291 5294 5296 5298 5299 5301 5303 5304 5305 5306 5307 5307 5309 5311 5312 5313 5315 5317 5319 5322 5325 5328 5331 5337 5343
5369 5365 5360 5356 5350 5345 5341 5336 5332 5327 5322 5316 5312 5307 5302 5298 5293 5289 5283 5279 5274 5269 5263 5257 5253 5251 5249 5247 5244 5243 5242 5241 5241 5241 5242 5243 5245 5246 5247 5249 5251 5252 5254 5256 5258 5260 5262 5263 5265 5267 5269 5270 5272 5273 5274 5276 5277 5278 5280 5283 5286 5288 5290 5292 5293 5295 5297 5298 5299 5300 5301 5302 5303 5306 5308 5309 5310 5311 5314 5316 5320 5322 5325 5330 5334
5360 5355 5351 5346 5341 5336 5332 5327 5323 5318 5313 5309 5304 5300 5295 5291 5286 5281 5276 5272 5268 5263 5258 5252 5248 5245 5243 5242 5240 5238 5237 5236 5235 5236 5236 5237 5239 5241 5242 5243 5245 5246 5248 5250 5252 5254 5255 5257 5259 5261 5263 5264 5266 5268 5269 5270 5271 5273 5275 5277 5280 5282 5284 5286 5288 5289 5291 5292 5293 5295 5296 5297 5298 5300 5302 5304 5305 5306 5308 5310 5313 5316 5319 5323 5326
5350 5346 5341 5336 5332 5327 5323 5319 5315 5310 5305 5301 5297 5292 5288 5284 5279 5274 5269 5265 5261 5257 5253 5248 5243 5239 5237 5236 5234 5233 5232 5231 5230 5230 5231 5232 5233 5235 5237 5237 5238 5240 5242 5243 5245 5247 5249 5251 5253 5255 5256 5258 5260 5262 5263 5264 5266 5267 5269 5272 5274 5277 5279 5280 5282 5284 5285 5286 5287 5289 5290 5291 5293 5294 5297 5299 5300 5301 5303 5305 5307 5310 5313 5316 5319
5341 5336 5332 5327 5323 5319 5315 5311 5307 5303 5298 5294 5290 5285 5281 5276 5272 5267 5262 5258 5254 5250 5247 5243 5238 5234 5232 5231 5229 5228 5227 5225 5225 5225 5226 5227 5227 5229 5231 5232 5232 5234 5236 5237 5239 5241 5243 5245 5247 5249 5250 5252 5254 5256 5257 5258 5260 5262 5264 5267 5269 5271 5273 5275 5276 5278 5279 5280 5281 5283 5284 5286 5287 5288 5291 5293 5295 5297 5298 5299 5302 5305 5307 5310 5312
5331 5326 5322 5318 5314 5310 5307 5303 5299 5295 5291 5286 5282 5278 5273 5269 5264 5259 5255 5251 5247 5244 5241 5237 5233 5229 5226 5225 5224 5223 5221 5220 5220 5220 5221 5221 5222 5223 5225 5227 5228 5228 5230 5231 5233 5235 5237 5239 5241 5243 5245 5247 5248 5249 5251 5252 5254 5257 5259 5262 5264 5266 5267 5269 5271 5272 5273 5274 5275 5277 5278 5280 5281 5282 5284 5287 5289 5291 5293 5295 5297 5299 5301 5304 5306
5321 5317 5313 5309 5305 5300 5297 5294 5290 5286 5282 5278 5274 5270 5265 5261 5256 5252 5248 5244 5241 5237 5234 5231 5228 5224 5221 5220 5219 5218 5216 5215 5215 5215 5215 5216 5217 5218 5219 5221 5222 5223 5224 5225 5227 5229 5231 5233 5236 5238 5239 5241 5242 5243 5245 5246 5249 5252 5254 5257 5259 5260 5262 5263 5265 5266 5267 5268 5270 5271 5272 5274 5276 5277 5279 5281 5284 5286 5288 5290 5292 5294 5296 5299 5301
5312 5308 5304 5300 5296 5292 5288 5285 5281 5278 5274 5270 5266 5262 5258 5253 5249 5244 5240 5237 5234 5231 5228 5226 5222 5219 5216 5214 5213 5212 5211 5210 5209 5210 5210 5210 5211 5213 5214 5215 5217 5218 5219 5220 5222 5224 5226 5228 5230 5232 5234 5235 5237 5238 5239 5241 5243 5246 5249 5251 5254 5255 5256 5258 5259 5260 5261 5263 5264 5265 5267 5268 5270 5272 5274 5276 5278 5280 5282 5284 5286 5289 5291 5293 5295
5304 5300 5296 5292 5288 5284 5280 5276 5273 5270 5266 5262 5258 5254 5250 5246 5241 5237 5233 5229 5226 5224 5222 5219 5216 5214 5211 5209 5207 5206 5205 5204 5204 5204 5205 5205 5206 5208 5209 5210 5212 5213 5214 5215 5216 5219 5221 5222 5225 5227 5229 5230 5231 5232 5234 5236 5238 5241 5243 5246 5248 5250 5251 5252 5254 5254 5256 5257 5258 5260 5261 5263 5265 5267 5269 5271 5273 5275 5277 5279 5281 5284 5286 5287 5289
5296 5292 5288 5284 5280 5276 5272 5268 5264 5261 5257 5254 5250 5246 5242 5238 5233 5229 5225 5222 5219 5217 5215 5213 5210 5208 5205 5203 5201 5200 5199 5199 5198 5199 5199 5200 5201 5202 5203 5205 5206 5207 5209 5210 5211 5213 5216 5217 5219 5221 5223 5224 5226 5227 5229 5231 5234 5236 5238 5240 5242 5244 5245 5247 5248 5249 5250 5251 5253 5254 5256 5257 5259 5261 5264 5266 5269 5271 5272 5274 5276 5278 5280 5282 5284
5288 5284 5281 5276 5272 5268 5264 5260 5256 5252 5249 5245 5242 5238 5234 5229 5225 5221 5218 5214 5212 5210 5208 5206 5204 5201 5199 5197 5196 5194 5194 5193 5193 5193 5194 5195 5196 5197 5198 5200 5201 5202 5203 5205 5206 5208 5211 5213 5214 5216 5218 5219 5220 5222 5223 5226 5229 5232 5233 5235 5237 5238 5239 5241 5243 5244 5246 5246 5247 5249 5251 5252 5254 5256 5258 5261 5264 5266 5268 5269 5271 5273 5274 5276 5278
5281 5276 5273 5268 5264 5260 5255 5251 5248 5244 5240 5237 5234 5230 5225 5221 5217 5214 5210 5207 5205 5203 5201 5199 5197 5195 5193 5191 5190 5189 5188 5188 5188 5188 5189 5190 5190 5192 5193 5194 5195 5197 5198 5200 5202 5204 5206 5208 5210 5211 5213 5214 5215 5216 5218 5221 5224 5227 5229 5230 5231 5232 5234 5236 5237 5239 5241 5242 5243 5244 5245 5247 5249 5251 5253 5256 5259 5262 5264 5265 5266 5268 5270 5271 5273
5272 5268 5264 5260 5256 5252 5247 5243 5239 5236 5232 5229 5225 5221 5217 5213 5209 5206 5202 5199 5197 5195 5194 5193 5191 5189 5187 5185 5184 5184 5183 5183 5183 5183 5184 5185 5185 5186 5188 5189 5190 5192 5193 5195 5197 5199 5201 5203 5205 5206 5207 5208 5210 5211 5213 5216 5220 5223 5224 5225 5226 5228 5229 5231 5233 5235 5237 5238 5238 5239 5240 5242 5244 5246 5249 5252 5255 5257 5259 5261 5262 5264 5265 5266 5268
5265 5260 5256 5252 5248 5244 5239 5235 5231 5227 5224 5220 5217 5213 5209 5205 5202 5198 5195 5192 5190 5188 5187 5186 5184 5183 5181 5180 5179 5178 5178 5178 5178 5178 5179 5180 5180 5181 5182 5184 5185 5187 5189 5190 5192 5194 5196 5198 5200 5201 5202 5203 5205 5207 5209 5211 5215 5218 5219 5219 5221 5223 5224 5226 5228 5230 5231 5232 5233 5234 5236 5237 5239 5242 5244 5247 5250 5253 5255 5257 5258 5259 5260 5262 5263
5257 5253 5249 5244 5240 5236 5232 5228 5224 5220 5216 5212 5209 5205 5201 5198 5194 5191 5187 5185 5183 5181 5180 5179 5178 5176 5175 5174 5174 5173 5173 5173 5174 5174 5174 5175 5175 5176 5177 5179 5180 5182 5184 5185 5187 5189 5191 5194 5195 5196 5197 5198 5200 5202 5204 5207 5210 5213 5214 5215 5216 5218 5219 5221 5222 5224 5226 5227 5229 5230 5232 5233 5235 5237 5239 5242 5245 5249 5251 5253 5254 5255 5256 5258 5259
5250 5246 5241 5237 5233 5229 5225 5221 5216 5212 5208 5204 5201 5197 5194 5190 5187 5183 5180 5177 5176 5174 5173 5172 5171 5170 5169 5169 5168 5168 5168 5169 5169 5169 5169 5169 5170 5171 5172 5174 5175 5177 5179 5180 5182 5184 5186 5188 5189 5191 5192 5194 5196 5198 5201 5203 5206 5208 5209 5210 5211 5212 5214 5215 5217 5219 5221 5223 5224 5226 5228 5230 5231 5233 5235 5238 5242 5244 5247 5249 5251 5252 5253 5254 5255
5243 5238 5234 5230 5225 5222 5218 5213 5209 5205 5201 5197 5193 5189 5186 5183 5179 5176 5173 5170 5169 5168 5167 5166 5165 5164 5163 5163 5163 5163 5163 5163 5164 5164 5164 5164 5165 5166 5167 5169 5171 5172 5174 5176 5177 5179 5181 5183 5185 5186 5188 5189 5192 5194 5197 5199 5201 5203 5204 5205 5206 5208 5209 5210 5212 5214 5216 5218 5220 5221 5223 5225 5227 5229 5231 5235 5238 5240 5242 5244 5247 5249 5250 5251 5251
5235 5231 5226 5222 5217 5213 5209 5205 5201 5197 5193 5189 5185 5181 5178 5175 5172 5169 5166 5164 5162 5161 5160 5160 5159 5158 5158 5157 5157 5158 5158 5158 5158 5158 5159 5159 5160 5161 5163 5164 5166 5168 5169 5171 5172 5174 5176 5178 5180 5182 5183 5185 5187 5189 5192 5194 5196 5198 5200 5201 5202 5203 5204 5206 5207 5209 5211 5214 5216 5217 5219 5221 5222 5224 5227 5231 5234 5236 5238 5241 5243 5245 5246 5247 5248
5227 5223 5218 5214 5209 5205 5201 5197 5193 5189 5185 5181 5177 5173 5170 5167 5164 5161 5159 5157 5155 5154 5154 5153 5153 5152 5152 5152 5152 5152 5152 5152 5153 5153 5153 5154 5155 5156 5158 5160 5161 5163 5165 5166 5168 5169 5171 5173 5175 5177 5179 5181 5183 5185 5187 5189 5191 5193 5195 5196 5198 5199 5200 5201 5203 5204 5206 5209 5211 5213 5214 5216 5218 5220 5223 5226 5229 5232 5235 5237 5240 5241 5243 5244 5245
5219 5214 5210 5206 5201 5197 5193 5188 5184 5180 5176 5173 5169 5165 5161 5159 5157 5154 5152 5150 5149 5148 5147 5147 5147 5146 5146 5146 5146 5146 5147 5147 5147 5147 5148 5149 5150 5152 5153 5155 5157 5158 5160 5162 5163 5165 5166 5168 5171 5173 5175 5176 5178 5180 5183 5185 5187 5189 5190 5192 5193 5195 5196 5198 5199 5200 5202 5204 5207 5209 5210 5212 5214 5217 5219 5222 5224 5227 5231 5234 5236 5238 5240 5241 5241
5211 5206 5202 5197 5193 5189 5184 5180 5176 5172 5168 5165 5162 5158 5153 5150 5149 5147 5145 5143 5142 5141 5141 5140 5141 5140 5140 5140 5140 5141 5141 5141 5141 5142 5143 5144 5146 5147 5149 5150 5152 5154 5155 5157 5159 5160 5162 5164 5166 5168 5170 5172 5174 5176 5178 5180 5182 5184 5185 5187 5189 5190 5192 5193 5195 5197 5198 5200 5202 5204 5206 5208 5210 5213 5215 5218 5220 5222 5226 5230 5232 5234 5236 5238 5238
5203 5198 5193 5188 5183 5179 5176 5171 5167 5163 5160 5156 5153 5151 5147 5143 5140 5139 5138 5136 5135 5134 5134 5134 5134 5134 5134 5134 5135 5135 5136 5136 5136 5137 5138 5139 5141 5143 5144 5146 5147 5149 5151 5153 5154 5156 5157 5159 5161 5163 5165 5168 5170 5172 5174 5175 5177 5179 5181 5182 5184 5186 5188 5189 5191 5193 5194 5195 5197 5199 5201 5204 5206 5209 5211 5214 5215 5217 5221 5225 5228 5230 5232 5234 5235
5192 5188 5184 5179 5175 5170 5167 5163 5159 5155 5151 5148 5145 5142 5140 5136 5133 5131 5130 5129 5128 5127 5127 5127 5128 5128 5128 5129 5129 5130 5130 5131 5131 5132 5133 5135 5136 5138 5140 5141 5143 5144 5146 5148 5150 5152 5153 5155 5157 5159 5161 5163 5165 5167 5169 5171 5173 5174 5176 5178 5180 5182 5184 5185 5187 5188 5189 5191 5193 5196 5198 5200 5202 5204 5207 5209 5211 5213 5216 5220 5223 5226 5228 5230 5231
5183 5178 5175 5171 5166 5162 5158 5155 5151 5147 5143 5140 5137 5134 5131 5129 5126 5124 5123 5122 5121 5121 5121 5121 5121 5122 5122 5123 5123 5124 5125 5126 5126 5127 5128 5130 5132 5133 5135 5137 5138 5140 5142 5144 5146 5148 5149 5151 5152 5154 5156 5158 5160 5162 5164 5166 5168 5170 5172 5174 5176 5178 5179 5180 5182 5184 5186 5188 5190 5191 5193 5195 5197 5200 5202 5205 5207 5209 5212 5215 5218 5221 5223 5225 5227
5174 5169 5165 5162 5158 5154 5150 5146 5143 5139 5135 5132 5129 5126 5123 5121 5119 5117 5116 5114 5114 5114 5114 5114 5115 5116 5116 5117 5117 5118 5119 5120 5121 5122 5124 5125 5127 5129 5130 5132 5134 5136 5138 5140 5142 5143 5144 5146 5148 5149 5151 5153 5155 5158 5160 5162 5164 5166 5168 5170 5172 5173 5174 5176 5178 5180 5182 5184 5185 5187 5189 5191 5193 5195 5198 5200 5203 5206 5208 5211 5213 5216 5219 5221 5223
5167 5162 5158 5153 5149 5145 5141 5137 5134 5131 5127 5124 5121 5118 5115 5113 5111 5110 5108 5107 5107 5107 5107 5108 5109 5110 5110 5111 5111 5112 5113 5115 5116 5117 5118 5120 5122 5124 5126 5128 5130 5131 5133 5135 5137 5138 5139 5141 5143 5145 5147 5148 5151 5153 5155 5157 5159 5161 5163 5165 5167 5169 5170 5172 5174 5176 5177 5179 5181 5183 5185 5187 5189 5191 5193 5196 5199 5201 5204 5206 5209 5212 5215 5217 5219
5160 5155 5151 5146 5142 5137 5133 5129 5125 5122 5119 5116 5113 5110 5108 5106 5104 5102 5101 5100 5100 5100 5101 5101 5102 5104 5104 5105 5106 5106 5108 5109 5111 5112 5113 5115 5117 5119 5121 5122 5124 5126 5128 5130 5132 5133 5135 5136 5139 5140 5142 5144 5146 5148 5150 5153 5155 5157 5159 5161 5163 5164 5166 5168 5169 5171 5173 5175 5177 5179 5181 5183 5185 5187 5189 5192 5194 5197 5200 5202 5205 5207 5210 5212 5214
5151 5147 5143 5139 5134 5130 5126 5121 5117 5113 5110 5107 5105 5102 5100 5098 5097 5095 5094 5093 5093 5093 5094 5095 5096 5097 5098 5099 5100 5101 5102 5103 5105 5107 5108 5110 5111 5113 5115 5117 5119 5121 5123 5125 5127 5128 5130 5132 5134 5136 5137 5139 5141 5144 5146 5148 5150 5152 5154 5156 5158 5160 5162 5164 5165 5167 5169 5171 5172 5174 5176 5179 5181 5183 5185 5188 5190 5192 5195 5198 5200 5203 5206 5208 5210
5141 5137 5133 5130 5126 5122 5118 5114 5110 5106 5103 5100 5097 5095 5093 5091 5089 5088 5087 5087 5087 5087 5088 5089 5090 5091 5092 5093 5094 5095 5096 5098 5099 5101 5103 5105 5106 5108 5109 5111 5114 5116 5118 5120 5121 5123 5125 5127 5129 5131 5133 5135 5137 5139 5141 5143 5145 5147 5149 5152 5154 5156 5157 5159 5161 5163 5165 5167 5168 5170 5172 5174 5177 5179 5181 5183 5186 5188 5191 5193 5196 5198 5201 5204 5206
5134 5129 5125 5121 5118 5114 5110 5107 5104 5101 5097 5094 5091 5088 5086 5084 5083 5082 5081 5080 5080 5081 5081 5082 5083 5084 5086 5087 5088 5089 5091 5092 5094 5095 5097 5099 5101 5103 5104 5106 5108 5111 5113 5114 5116 5118 5120 5122 5124 5126 5128 5130 5132 5134 5136 5138 5141 5143 5145 5147 5149 5151 5153 5155 5157 5159 5161 5163 5164 5166 5168 5170 5173 5175 5177 5179 5181 5184 5186 5189 5191 5194 5196 5199 5201
5128 5123 5119 5115 5112 5108 5104 5101 5097 5094 5091 5088 5085 5082 5080 5078 5077 5076 5075 5074 5074 5075 5075 5076 5077 5078 5080 5081 5083 5084 5085 5086 5088 5089 5091 5094 5096 5097 5099 5101 5103 5106 5108 5109 5111 5113 5115 5117 5119 5121 5123 5125 5127 5129 5132 5134 5136 5138 5141 5143 5145 5147 5149 5151 5153 5155 5157 5158 5160 5162 5164 5166 5168 5171 5173 5175 5177 5180 5182 5184 5187 5189 5192 5194 5197
5120 5116 5113 5109 5106 5102 5099 5095 5091 5088 5085 5082 5080 5077 5075 5073 5071 5070 5069 5069 5068 5069 5069 5070 5071 5073 5074 5076 5077 5078 5079 5080 5082 5084 5086 5088 5090 5092 5093 5095 5098 5100 5102 5104 5106 5108 5110 5112 5114 5116 5118 5120 5122 5124 5127 5129 5131 5134 5136 5138 5140 5142 5144 5146 5148 5150 5152 5154 5156 5158 5160 5162 5164 5166 5169 5171 5173 5175 5178 5180 5182 5185 5187 5190 5193
5113 5109 5106 5103 5100 5097 5094 5090 5086 5082 5079 5076 5074 5072 5070 5068 5066 5065 5064 5063 5063 5063 5063 5064 5065 5067 5069 5070 5071 5073 5074 5075 5077 5078 5080 5082 5084 5086 5088 5090 5092 5094 5097 5099 5101 5103 5105 5107 5109 5111 5113 5115 5117 5120 5122 5124 5127 5129 5131 5134 5136 5138 5140 5142 5144 5146 5148 5150 5152 5154 5156 5158 5160 5162 5164 5167 5169 5171 5173 5176 5178 5180 5183 5185 5188
5106 5102 5099 5096 5093 5090 5087 5084 5081 5077 5074 5071 5069 5067 5065 5063 5061 5060 5059 5058 5058 5058 5058 5058 5059 5061 5063 5065 5066 5068 5069 5070 5071 5073 5075 5076 5079 5081 5083 5085 5087 5089 5091 5094 5096 5098 5100 5102 5104 5106 5109 5111 5113 5115 5117 5119 5122 5124 5127 5129 5131 5133 5135 5137 5139 5141 5143 5145 5147 5149 5151 5153 5156 5158 5160 5162 5165 5167 5169 5172 5174 5176 5178 5181 5183
5100 5096 5093 5089 5086 5083 5080 5078 5075 5072 5069 5066 5063 5061 5060 5058 5057 5055 5054 5053 5052 5052 5053 5053 5054 5055 5056 5058 5061 5063 5064 5065 5066 5068 5070 5071 5073 5075 5077 5079 5082 5084 5086 5088 5091 5093 5095 5097 5099 5101 5104 5106 5108 5110 5112 5114 5117 5119 5122 5124 5126 5129 5131 5133 5135 5137 5139 5141 5143 5145 5147 5149 5151 5153 5156 5158 5160 5163 5165 5167 5170 5172 5174 5176 5179
5095 5091 5088 5084 5081 5078 5075 5072 5069 5067 5064 5062 5059 5057 5055 5053 5052 5050 5049 5048 5047 5047 5047 5048 5048 5049 5050 5052 5054 5057 5059 5060 5062 5063 5065 5067 5068 5070 5072 5074 5076 5078 5081 5083 5086 5088 5090 5092 5094 5096 5098 5101 5103 5105 5107 5109 5112 5114 5117 5119 5122 5124 5126 5128 5130 5133 5135 5137 5139 5141 5143 5145 5147 5149 5151 5153 5156 5158 5161 5163 5165 5168 5170 5172 5174
5090 5087 5084 5080 5077 5074 5071 5068 5065 5062 5060 5058 5055 5053 5050 5049 5047 5046 5045 5044 5043 5042 5042 5043 5043 5044 5045 5046 5048 5050 5053 5055 5057 5059 5060 5062 5064 5066 5067 5069 5071 5073 5075 5078 5080 5083 5085 5087 5089 5091 5093 5096 5098 5100 5102 5104 5107 5109 5112 5114 5116 5119 5121 5123 5126 5128 5130 5132 5135 5137 5139 5141 5143 5145 5147 5149 5151 5153 5156 5158 5161 5163 5165 5168 5170
5085 5082 5079 5076 5073 5070 5067 5064 5061 5058 5056 5054 5051 5049 5047 5045 5043 5041 5040 5039 5038 5038 5038 5038 5038 5039 5040 5041 5042 5044 5046 5049 5051 5053 5055 5057 5059 5061 5063 5064 5066 5067 5070 5072 5075 5077 5080 5082 5084 5086 5088 5091 5093 5095 5097 5099 5102 5104 5106 5109 5111 5114 5116 5118 5121 5123 5125 5128 5130 5132 5134 5136 5138 5140 5142 5145 5147 5149 5151 5154 5156 5158 5161 5163 5165
5080 5076 5073 5070 5068 5065 5062 5060 5057 5054 5052 5050 5047 5045 5043 5041 5039 5037 5036 5034 5034 5033 5033 5033 5033 5034 5035 5036 5037 5038 5040 5042 5045 5047 5049 5052 5054 5056 5058 5060 5061 5063 5065 5067 5069 5072 5074 5077 5079 5081 5083 5086 5088 5090 5092 5095 5097 5099 5101 5104 5106 5109 5111 5113 5116 5118 5120 5123 5125 5127 5130 5132 5134 5136 5138 5140 5142 5144 5147 5149 5151 5153 5156 5158 5160
5076 5072 5069 5066 5063 5060 5057 5055 5053 5050 5048 5045 5043 5041 5039 5037 5036 5034 5032 5030 5029 5028 5028 5028 5028 5029 5030 5030 5031 5033 5034 5036 5039 5041 5043 5045 5048 5050 5053 5055 5057 5058 5060 5062 5064 5066 5068 5071 5074 5076 5078 5081 5083 5085 5088 5090 5092 5094 5097 5099 5101 5104 5106 5108 5111 5113 5115 5118 5120 5122 5125 5127 5129 5132 5134 5136 5138 5140 5142 5144 5147 5149 5151 5153 5155
5072 5069 5065 5062 5059 5056 5053 5050 5048 5046 5043 5041 5039 5037 5035 5033 5032 5030 5029 5027 5025 5024 5024 5023 5023 5024 5025 5025 5026 5027 5029 5030 5033 5035 5037 5039 5042 5044 5047 5049 5051 5053 5055 5057 5059 5061 5063 5065 5068 5070 5073 5075 5078 5080 5083 5085 5087 5089 5092 5094 5096 5099 5101 5103 5106 5108 5110 5113 5115 5117 5120 5122 5124 5127 5129 5131 5133 5136 5138 5140 5142 5144 5146 5148 5151
5069 5065 5062 5058 5055 5052 5049 5047 5044 5042 5039 5037 5035 5033 5031 5029 5028 5026 5025 5024 5022 5021 5020 5019 5019 5019 5020 5020 5021 5022 5023 5025 5026 5028 5031 5033 5036 5038 5041 5043 5045 5047 5050 5052 5054 5056 5058 5060 5062 5064 5067 5070 5072 5075 5077 5080 5082 5084 5087 5089 5091 5094 5096 5098 5101 5103 5105 5108 5110 5112 5115 5117 5119 5122 5124 5126 5129 5131 5133 5135 5138 5140 5142 5144 5146